Lubbock, TX

8:59 PM CDT on July 23, 2017 (GMT -0500)
Lubbock International

Weather History for KLBB - May, 2013

Change the Weather History Date:

Friday, May 24, 2013

  Actual Average Record
Temperature  
Mean Temperature 72 °F 72 °F  
Max Temperature 84 °F 86 °F 109 °F (2000)
Min Temperature 60 °F 58 °F 40 °F (1930)
Degree Days  
Heating Degree Days 0 1  
Month to date heating degree days 86 37  
Since 1 July heating degree days 3208 3374  
Cooling Degree Days 7 8  
Month to date cooling degree days 142 129  
Year to date cooling degree days 204 185  
Growing Degree Days 22 (Base 50)    
Moisture  
Dew Point 55 °F    
Average Humidity 61    
Maximum Humidity 84    
Minimum Humidity 37    
Precipitation  
Precipitation 0.00 in 0.09 in 2.18 in (1937)
Month to date precipitation 1.15 1.65  
Year to date precipitation 3.42 5.56  
Snow  
Snow 0.00 in 0.00 in 0.00 in (2002)
Month to date snowfall 0.0 0.0  
Since 1 July snowfall 4.1 8.2  
Snow Depth 0.00 in    
Sea Level Pressure  
Sea Level Pressure 29.96 in    
Wind  
Wind Speed 15 mph (SE)    
Max Wind Speed 29 mph    
Max Gust Speed 38 mph    
Visibility 10 miles    
Events      
T = Trace of Precipitation, MM = Missing Value Source: NWS Daily Summary

Daily Weather History Graph

Daily Weather History Graph

Search for Another Location

Airport or City:

Trip Planner

Search our weather history database for the weather conditions in past years. The results will help you decide how hot, cold, wet, or windy it might be!

Date:

Astronomy

May. 24, 2013 Rise Set
Actual Time 6:40 AM CDT 8:47 PM CDT
Civil Twilight 6:12 AM CDT 9:15 PM CDT
Nautical Twilight 5:38 AM CDT 9:50 PM CDT
Astronomical Twilight 5:01 AM CDT 10:27 PM CDT
Moon 8:33 PM CDT 6:12 AM CDT
Length of Visible Light 15h 03m
Length of Day
14h 06m
Full, 100% of the Moon is Illuminated
May 24
Full
May 24
Full
May 31
Last Quarter
Jun 8
New
Jun 16
First Quarter

Hourly Weather History & Observations

Time (CDT) Temp. Heat Index Dew Point Humidity Pressure Visibility Wind Dir Wind Speed Gust Speed Precip Events Conditions
12:53 AM 66.9 °F - 54.0 °F 63% 29.89 in 10.0 mi South 28.8 mph 49.5 mph N/A   Overcast
1:53 AM 66.0 °F - 54.0 °F 65% 29.88 in 10.0 mi South 20.7 mph 32.2 mph N/A   Overcast
2:53 AM 64.9 °F - 54.0 °F 68% 29.89 in 10.0 mi South 19.6 mph - N/A   Overcast
3:53 AM 64.0 °F - 54.0 °F 70% 29.89 in 10.0 mi South 15.0 mph - N/A   Overcast
4:53 AM 64.0 °F - 53.1 °F 67% 29.93 in 10.0 mi South 17.3 mph - N/A   Overcast
5:53 AM 62.1 °F - 54.0 °F 75% 29.98 in 10.0 mi East 8.1 mph - N/A   Mostly Cloudy
6:53 AM 60.1 °F - 55.0 °F 83% 30.01 in 10.0 mi NE 4.6 mph - N/A   Mostly Cloudy
7:53 AM 62.1 °F - 55.0 °F 78% 30.02 in 10.0 mi NE 6.9 mph - N/A   Mostly Cloudy
8:53 AM 66.0 °F - 55.9 °F 70% 30.05 in 10.0 mi Calm Calm - N/A   Scattered Clouds
9:53 AM 69.1 °F - 55.0 °F 61% 30.06 in 10.0 mi ESE 5.8 mph - N/A   Mostly Cloudy
10:53 AM 73.0 °F - 55.0 °F 53% 30.04 in 10.0 mi Calm Calm - N/A   Mostly Cloudy
11:53 AM 77.0 °F - 55.0 °F 47% 30.01 in 10.0 mi SE 10.4 mph - N/A   Mostly Cloudy
12:53 PM 80.1 °F 80.0 °F 54.0 °F 40% 29.98 in 10.0 mi SSE 19.6 mph 29.9 mph N/A   Mostly Cloudy
1:53 PM 82.0 °F 81.2 °F 53.1 °F 37% 29.97 in 10.0 mi SE 15.0 mph 23.0 mph N/A   Scattered Clouds
2:53 PM 82.9 °F 81.9 °F 54.0 °F 37% 29.96 in 9.0 mi SE 21.9 mph 31.1 mph N/A   Scattered Clouds
3:53 PM 84.0 °F 82.9 °F 55.0 °F 37% 29.94 in 10.0 mi SSE 17.3 mph 23.0 mph N/A   Mostly Cloudy
4:53 PM 82.9 °F 81.9 °F 54.0 °F 37% 29.91 in 10.0 mi SSE 17.3 mph 23.0 mph N/A   Mostly Cloudy
5:53 PM 82.9 °F 81.9 °F 54.0 °F 37% 29.91 in 10.0 mi SSE 12.7 mph - N/A   Scattered Clouds
6:53 PM 81.0 °F 80.4 °F 53.1 °F 38% 29.93 in 10.0 mi SE 16.1 mph 26.5 mph N/A   Mostly Cloudy
7:53 PM 77.0 °F - 55.0 °F 47% 29.94 in 10.0 mi SE 23.0 mph - N/A   Scattered Clouds
8:53 PM 75.0 °F - 54.0 °F 48% 29.95 in 10.0 mi SE 17.3 mph - N/A   Partly Cloudy
9:53 PM 73.9 °F - 57.0 °F 55% 29.96 in 10.0 mi SE 18.4 mph - N/A   Scattered Clouds
10:53 PM 71.1 °F - 59.0 °F 66% 29.99 in 10.0 mi SE 23.0 mph - N/A   Mostly Cloudy
11:53 PM 69.1 °F - 60.1 °F 73% 29.99 in 10.0 mi SSE 24.2 mph 31.1 mph N/A   Mostly Cloudy